DJ3OW-13 Weather Reports


Display with metric or nautical units.
time (UTC)temp
F
wind
direction
speed
MPH
gust
MPH
rain 1hr
in
rain 24hr
in
rain mn
in
humidity
%
barometer
mb
20260901034528 60 277 4.0 7.0 0.00 0.25 0.04 88 1019.2
20260901033525 60 271 3.0 6.0 0.00 0.25 0.04 88 1019.2
20260901032523 60 260 3.0 6.0 0.00 0.25 0.04 88 1019.1
20260901031521 60 260 3.0 7.0 0.00 0.25 0.04 89 1019.0
20260901030519 60 270 3.0 7.0 0.00 0.25 0.04 89 1019.1
20260901025517 60 249 3.0 7.0 0.00 0.25 0.04 89 1019.0
20260901024515 60 270 4.0 9.0 0.00 0.25 0.04 89 1019.0
20260901023613 60 257 2.0 6.0 0.00 0.25 0.04 89 1019.0
20260901022612 60 277 3.0 6.0 0.00 0.25 0.04 89 1018.9
20260901021630 60 283 3.0 6.0 0.00 0.25 0.04 90 1018.8
20260901020607 59 260 2.0 4.0 0.00 0.25 0.04 91 1018.9
20260901015605 59 258 1.0 4.0 0.00 0.25 0.04 91 1018.7
20260901014643 59 270 2.0 4.0 0.00 0.25 0.04 91 1018.7
20260901013641 59 309 2.0 4.0 0.02 0.25 0.04 93 1018.7
20260901012600 59 264 1.0 4.0 0.04 0.25 0.04 93 1018.7
20260901011557 59 260 1.0 2.0 0.04 0.25 0.04 94 1018.7
20260901010635 59 261 1.0 2.0 0.04 0.25 0.04 93 1018.8
20260901005553 59 270 1.0 2.0 0.04 0.25 0.04 92 1018.8
20260901004551 60 260 1.0 4.0 0.04 0.25 0.04 91 1018.7
20260901003549 60 256 1.0 4.0 0.01 0.22 0.01 89 1018.8
20260901002628 60 256 2.0 4.0 0.00 0.21 0.00 88 1018.6
20260901001545 60 266 2.0 4.0 0.00 0.21 0.00 89 1018.5
20260901000603 60 293 1.0 2.0 0.00 0.21 0.00 89 1018.5
20260831235601 60 278 1.0 4.0 0.00 0.21 0.00 89 1018.4
20260831234539 60 295 2.0 7.0 0.00 0.21 0.00 89 1018.4
20260831233537 60 266 3.0 6.0 0.00 0.21 0.00 89 1018.3
20260831232535 60 268 3.0 9.0 0.00 0.21 0.00 87 1018.3
20260831231533 60 292 3.0 6.0 0.00 0.21 0.00 86 1018.3
20260831230531 61 247 1.0 6.0 0.00 0.21 0.00 85 1018.3
20260831225529 61 315 1.0 4.0 0.00 0.21 0.00 84 1018.1
20260831224527 61 285 2.0 6.0 0.00 0.21 0.00 84 1018.2
20260831223525 60 269 2.0 4.0 0.00 0.21 0.00 85 1018.1
20260831222543 60 289 4.0 9.0 0.00 0.21 0.00 85 1017.9
20260831221521 60 282 4.0 9.0 0.00 0.21 0.00 87 1017.8
20260831220519 60 252 3.0 11.0 0.00 0.21 0.00 85 1017.8
20260831215517 60 282 5.0 11.0 0.00 0.21 0.21 85 1017.7
20260831214515 60 239 2.0 6.0 0.00 0.21 0.21 85 1017.6
20260831213613 60 274 2.0 8.0 0.00 0.21 0.21 85 1017.5
20260831212611 60 268 2.0 7.0 0.00 0.21 0.21 85 1017.4
20260831211629 60 291 1.0 2.0 0.00 0.21 0.21 85 1017.3
20260831210607 60 279 1.0 4.0 0.00 0.21 0.21 84 1017.3
20260831205605 60 280 1.0 4.0 0.00 0.21 0.21 84 1017.2
20260831204603 60 310 1.0 4.0 0.00 0.21 0.21 84 1017.1
20260831203621 60 248 1.0 2.0 0.00 0.21 0.21 83 1017.1
20260831202559 60 276 2.0 6.0 0.00 0.21 0.21 84 1017.0
20260831201557 60 284 2.0 4.0 0.00 0.21 0.21 83 1016.9
20260831200555 61 263 2.0 6.0 0.00 0.21 0.21 82 1016.8
20260831195553 60 262 2.0 6.0 0.00 0.21 0.21 82 1016.6
20260831194551 60 273 3.0 6.0 0.00 0.21 0.21 82 1016.5
20260831193549 61 260 2.0 6.0 0.00 0.21 0.21 82 1016.5
20260831192547 61 261 2.0 4.0 0.00 0.21 0.21 83 1016.5
20260831191545 61 256 4.0 7.0 0.00 0.21 0.21 82 1016.5
20260831190543 61 257 3.0 6.0 0.00 0.21 0.21 84 1016.4
20260831185541 61 297 3.0 6.0 0.00 0.21 0.21 85 1016.3
20260831184559 61 266 3.0 7.0 0.00 0.21 0.21 85 1016.3
20260831183617 61 267 3.0 6.0 0.00 0.21 0.21 85 1016.0
20260831182535 61 280 3.0 6.0 0.00 0.21 0.21 84 1015.8
20260831181533 61 277 3.0 7.0 0.00 0.21 0.21 84 1016.0
20260831180531 61 256 3.0 4.0 0.00 0.21 0.21 84 1015.7
20260831175529 61 288 4.0 8.0 0.00 0.21 0.21 83 1015.4
20260831174527 61 287 3.0 7.0 0.00 0.21 0.21 83 1015.4
20260831173525 62 279 3.0 8.0 0.00 0.21 0.21 83 1015.2
20260831172523 61 268 3.0 7.0 0.00 0.21 0.21 84 1015.3
20260831171521 61 289 3.0 7.0 0.01 0.21 0.21 83 1015.3
20260831170519 61 292 2.0 4.0 0.02 0.21 0.21 83 1015.2
20260831165516 61 254 2.0 4.0 0.04 0.21 0.21 85 1015.1
20260831164514 61 278 2.0 4.0 0.05 0.21 0.21 85 1014.7
20260831163613 61 270 3.0 8.0 0.05 0.21 0.21 85 1014.6
20260831162611 60 265 2.0 4.0 0.05 0.21 0.21 87 1014.8
20260831161609 61 263 3.0 7.0 0.04 0.20 0.20 87 1014.6
20260831160606 62 284 4.0 11.0 0.02 0.19 0.19 87 1015.0
20260831155604 63 272 3.0 7.0 0.01 0.18 0.18 86 1015.1
20260831154622 63 282 4.0 8.0 0.00 0.17 0.17 85 1015.0
20260831153601 63 242 4.0 8.0 0.00 0.17 0.17 88 1014.5
20260831152558 63 248 1.0 4.0 0.00 0.17 0.17 89 1014.3
20260831151557 63 248 1.0 2.0 0.15 0.17 0.17 88 1014.3
20260831150554 63 249 2.0 4.0 0.15 0.17 0.17 88 1014.3
20260831145552 63 266 3.0 4.0 0.15 0.17 0.17 90 1014.2
20260831144610 62 261 3.0 7.0 0.15 0.17 0.17 91 1013.9
20260831143548 62 251 4.0 9.0 0.15 0.17 0.17 91 1013.7
20260831142546 63 251 3.0 7.0 0.15 0.17 0.17 89 1014.0
20260831141544 68 242 3.0 8.0 0.00 0.01 0.01 72 1013.9
20260831140542 71 324 3.0 8.0 0.00 0.01 0.01 62 1013.8
20260831135600 71 305 3.0 7.0 0.00 0.01 0.01 63 1013.7
20260831134538 71 302 3.0 9.0 0.00 0.01 0.01 64 1013.9
20260831133536 73 134 3.0 9.0 0.00 0.01 0.01 62 1013.6
20260831132554 72 317 3.0 8.0 0.00 0.01 0.01 64 1013.8
20260831131532 70 156 2.0 7.0 0.00 0.01 0.01 67 1013.9
20260831130530 71 282 4.0 8.0 0.00 0.01 0.01 64 1014.1
20260831125528 72 123 1.0 4.0 0.00 0.01 0.01 61 1013.9
20260831124526 72 267 3.0 9.0 0.00 0.01 0.01 60 1013.8
20260831123524 72 282 2.0 8.0 0.00 0.01 0.01 61 1013.7
20260831122522 72 307 2.0 7.0 0.00 0.01 0.01 62 1014.0
20260831121520 71 268 2.0 6.0 0.00 0.01 0.01 62 1014.0
20260831120518 71 278 4.0 8.0 0.00 0.01 0.01 60 1013.8
20260831115516 72 319 3.0 9.0 0.00 0.01 0.01 60 1014.0
20260831114614 72 280 4.0 11.0 0.00 0.01 0.01 61 1014.0
20260831113612 73 304 3.0 8.0 0.00 0.01 0.01 59 1014.1
20260831112610 72 284 4.0 9.0 0.00 0.01 0.01 65 1014.0
20260831111608 72 328 2.0 7.0 0.00 0.01 0.01 65 1014.0
20260831110606 71 312 3.0 4.0 0.00 0.01 0.01 65 1014.1
20260831105604 72 289 3.0 8.0 0.00 0.01 0.01 66 1014.2
20260831104602 71 167 2.0 7.0 0.00 0.01 0.01 66 1014.2
20260831103620 70 101 3.0 9.0 0.00 0.01 0.01 67 1014.3
20260831102558 70 321 4.0 11.0 0.00 0.01 0.01 69 1014.3
20260831101556 70 279 2.0 6.0 0.00 0.01 0.01 73 1014.3
20260831100554 68 353 2.0 6.0 0.00 0.01 0.01 75 1014.3
20260831095552 68 298 3.0 6.0 0.00 0.01 0.01 74 1014.5
20260831094610 68 291 3.0 8.0 0.00 0.01 0.01 72 1014.5
20260831093548 69 291 4.0 9.0 0.00 0.01 0.01 71 1014.6
20260831092546 68 297 1.0 4.0 0.00 0.01 0.01 73 1014.5
20260831091543 69 270 3.0 9.0 0.01 0.01 0.01 72 1014.5
20260831090541 69 286 3.0 8.0 0.01 0.01 0.01 73 1014.6
20260831085539 69 277 2.0 7.0 0.01 0.01 0.01 73 1014.6
20260831084537 68 241 4.0 9.0 0.01 0.01 0.01 76 1014.6
20260831083535 67 267 2.0 6.0 0.01 0.01 0.01 81 1014.6
20260831082534 66 282 3.0 6.0 0.01 0.01 0.01 84 1014.7
20260831081532 65 299 1.0 4.0 0.00 0.00 0.00 86 1014.6
20260831080529 64 310 1.0 4.0 0.00 0.00 0.00 87 1014.5
20260831075527 64 71 1.0 4.0 0.00 0.00 0.00 88 1014.4
20260831074545 63 310 2.0 4.0 0.00 0.00 0.00 88 1014.4
20260831073523 63 309 2.0 4.0 0.00 0.00 0.00 88 1014.4
20260831072521 63 295 2.0 4.0 0.00 0.00 0.00 88 1014.4
20260831071519 64 332 1.0 4.0 0.00 0.00 0.00 87 1014.4
20260831070517 64 326 2.0 4.0 0.00 0.00 0.00 85 1014.4
20260831065515 64 330 1.0 4.0 0.00 0.00 0.00 84 1014.3
20260831064633 64 9 1.0 4.0 0.00 0.00 0.00 85 1014.3
20260831062629 64 336 1.0 4.0 0.00 0.00 0.00 84 1014.2
20260831061607 64 330 2.0 4.0 0.00 0.00 0.00 85 1014.0
20260831060605 63 4 1.0 6.0 0.00 0.00 0.00 86 1014.0
20260831055623 62 25 1.0 4.0 0.00 0.00 0.00 87 1013.8
20260831054601 62 2 1.0 4.0 0.00 0.00 0.00 88 1013.7
20260831053559 62 26 1.0 2.0 0.00 0.00 0.00 88 1013.7
20260831052557 61 13 1.0 4.0 0.00 0.00 0.00 88 1013.6
20260831051615 61 11 1.0 2.0 0.00 0.00 0.00 88 1013.5
20260831050553 61 23 1.0 2.0 0.00 0.00 0.00 88 1013.4
20260831045551 61 23 0.0 2.0 0.00 0.00 0.00 87 1013.5
20260831044609 60 23 0.0 2.0 0.00 0.00 0.00 87 1013.5
20260831043547 60 23 1.0 2.0 0.00 0.00 0.00 88 1013.5
20260831042545 60 0.0 0.0 0.00 0.00 0.00 87 1013.3
20260831041543 60 23 0.0 2.0 0.00 0.00 0.00 87 1013.3
20260831040601 60 23 0.0 2.0 0.00 0.00 0.00 86 1013.2
20260831035539 60 0.0 2.0 0.00 0.00 0.00 86 1013.0